Location: ????????
(55.6189°N, 38.3031°E)
Time: 20:52:57
(UTC+00:00)

Cosmos 2237 - Pass Details

Date: 15 November 2019
Orbit: 845 x 857 km, 70.8° (Epoch: 14 December)

Event Time Altitude Azimuth Distance (km) Brightness Sun altitude
Exits shadow 03:10:41 12° 325° (NW) 2,389 6.1 -15.2°
Maximum altitude 03:16:09 88° 239° (WSW) 865 4.2 -14.4°
Drops below altitude 10° 03:21:53 10° 149° (SSE) 2,482 7.3 -13.6°
Sets 03:24:19 0° 149° (SSE) 3,413 8.1 -13.3°
